Regional Weather Roundup
Issued by NWS

Home | Current Version | Previous Version | Text Only | Print | Product List | Glossary On
Versions: 1 2 3 4 5 6 7 8 9 10 11 12 13 14 15 16 17 18 19 20 21 22 23 24 25 26 27 28 29 30 31 32 33 34 35 36 37 38 39 40 41 42 43 44 45 46 47 48 49 50
000
ASUS43 KBIS 190610
RWRND

NORTH DAKOTA REGIONAL WEATHER ROUNDUP
NATIONAL WEATHER SERVICE BISMARCK ND
1200 AM CST SUN NOV 19 2017

NOTE: "FAIR" INDICATES FEW OR NO CLOUDS BELOW 12,000 FEET WITH NO
SIGNIFICANT WEATHER AND/OR OBSTRUCTIONS TO VISIBILITY.


NDZ001>003-009>011-017-190700-
NORTHWEST NORTH DAKOTA

CITY           SKY/WX    TMP DP  RH WIND       PRES   REMARKS
WILLISTON      CLOUDY    26  19  74 W9        29.99F WCI  17
6HR MIN TEMP:  23; 6HR MAX TEMP:  29;

MINOT          CLOUDY    22  16  78 CALM      29.96F
MINOT AFB      CLOUDY    18  13  82 W8        29.95F WCI   8
$$

NDZ018>021-031>035-040>046-190700-
SOUTHWEST NORTH DAKOTA

CITY           SKY/WX    TMP DP  RH WIND       PRES   REMARKS
BISMARCK       CLOUDY    19  16  88 CALM      30.06S
6HR MIN TEMP:  16; 6HR MAX TEMP:  31;

DICKINSON      CLOUDY    25  19  78 W9        30.00F WCI  15
GARRISON         N/A     25  20  81 W8        29.98F WCI  16
6HR MIN TEMP:  19; 6HR MAX TEMP:  26;

HETTINGER ARPT CLOUDY    22  17  81 NW7       30.08S WCI  13
$$

NDZ004>008-012>016-024-026-027-054-190700-
NORTHEAST NORTH DAKOTA

CITY           SKY/WX    TMP DP  RH WIND       PRES   REMARKS
GRAND FORKS    PTCLDY    12   6  77 W9        30.04S WCI   0
GRND FRKS AFB  CLEAR     12   6  75 W7        30.03F WCI   2
DEVILS LAKE    CLOUDY    12   9  87 W7        30.00F WCI   1
$$

NDZ022-023-025-028>030-036>039-047>053-190700-
SOUTHEAST NORTH DAKOTA

CITY           SKY/WX    TMP DP  RH WIND       PRES   REMARKS
FARGO          CLEAR     14   9  80 W8        30.07S WCI   3
6HR MIN TEMP:  13; 6HR MAX TEMP:  19;

JAMESTOWN      CLEAR     16  12  84 SW6       30.02F WCI   7
$$





USA.gov is the U.S. government's official web portal to all federal, state and local government web resources and services.